Theta_e
301 301 301 301 301 301 301 302 302 302 302 302 302 303 303 303 304 304 304 304 304 305 305 306 308 311 314 313 319 326 321 320 321 318 317 319 322 329 333 342 344 344 345 345 345 343 346
301 301 301 301 301 301 302 302 302 302 302 302 302 303 303 303 304 304 304 304 305 305 307 309 309 314 315 317 324 324 320 321 319 318 318 319 324 329 333 336 342 343 345 345 344 342 345
301 301 301 301 301 302 302 302 302 302 302 302 303 303 303 304 304 305 306 308 311 311 311 312 311 313 317 317 324 324 322 322 320 319 318 319 325 327 333 336 340 342 344 346 346 346 347
301 301 301 302 302 302 302 302 302 302 302 303 303 303 303 304 304 305 311 312 313 312 313 314 314 315 318 317 324 324 323 323 323 321 318 320 323 324 325 335 338 340 342 343 344 344 345
301 302 302 302 302 302 302 302 302 302 302 303 303 303 303 303 304 308 311 311 310 311 317 320 318 318 321 324 325 323 323 324 325 323 323 320 323 324 324 330 335 337 342 341 344 342 344
302 302 302 302 302 302 302 302 302 302 302 303 303 303 303 303 303 309 311 312 309 321 320 322 323 321 319 324 327 326 320 320 321 325 323 323 324 324 323 327 334 338 340 340 343 344 344
302 302 302 302 302 302 302 302 302 303 303 303 303 304 304 304 304 310 312 311 309 312 312 309 310 319 315 325 327 327 325 323 320 326 325 326 326 326 324 327 330 338 341 341 340 343 342
302 302 302 302 302 302 302 302 303 304 305 305 304 304 305 305 305 310 312 309 308 308 309 309 309 311 312 320 316 324 326 325 322 325 326 328 329 327 328 328 329 336 339 341 339 338 340
302 302 302 302 302 302 302 303 304 305 306 307 305 304 304 305 306 310 312 308 308 308 308 310 311 311 312 312 314 318 323 325 322 324 326 329 331 331 331 329 330 333 337 338 338 335 336
302 302 302 302 302 303 303 303 303 304 305 307 307 305 305 305 306 309 309 308 308 309 309 313 316 316 316 313 315 319 323 324 324 324 326 329 331 332 332 331 331 333 335 338 339 337 340
302 302 302 302 302 303 303 304 305 306 306 306 308 308 306 305 306 310 308 308 308 309 313 319 315 316 313 315 316 318 325 322 323 324 327 329 332 332 332 332 332 334 333 335 337 338 337
303 303 303 304 304 305 306 306 305 304 305 307 309 309 306 307 308 309 308 308 309 311 314 314 313 312 311 313 317 320 319 322 323 323 328 328 333 332 332 331 332 333 332 331 335 336 338
304 305 305 305 306 306 306 304 304 303 303 306 309 309 308 309 308 309 308 308 310 311 313 312 310 309 309 312 314 314 317 322 325 323 328 328 329 333 332 332 331 331 329 329 330 333 336
305 305 306 306 306 305 305 304 304 304 304 304 307 311 310 311 310 310 308 309 312 313 311 310 309 309 309 310 312 313 313 319 325 324 326 328 330 332 333 330 329 331 329 327 331 332 332
304 304 305 305 305 304 304 303 303 304 304 304 305 312 312 313 311 310 309 311 312 310 310 309 308 307 308 309 310 312 312 316 323 327 325 324 326 333 333 329 327 327 327 324 323 326 326
303 303 304 304 304 303 303 303 302 302 303 304 304 313 313 311 311 310 310 312 312 310 309 308 307 308 308 309 311 311 313 315 317 321 317 324 322 330 333 333 328 325 324 324 323 324 326
302 302 302 303 303 303 302 302 302 301 301 302 306 313 312 311 311 311 311 312 311 310 309 309 308 307 307 309 311 311 313 314 318 318 317 319 322 322 327 331 331 325 325 324 322 322 325
302 302 302 302 302 303 303 302 302 301 301 301 307 311 313 312 312 312 311 311 309 309 309 310 309 309 308 308 308 309 311 312 314 314 315 318 321 323 323 327 330 327 325 324 325 324 323
302 302 302 302 302 302 302 302 302 301 300 300 308 311 311 310 310 311 310 310 309 309 308 309 309 309 308 309 311 313 313 313 313 313 315 318 321 326 325 324 326 328 326 325 323 324 325
301 301 301 301 302 302 302 301 301 301 300 301 309 310 309 309 308 308 309 310 310 310 310 309 308 308 309 309 309 311 310 313 312 312 313 318 320 322 328 326 327 329 328 326 324 326 326
301 301 301 301 301 301 301 301 300 300 300 305 308 309 308 308 307 307 309 309 311 310 309 309 309 308 309 308 309 310 310 310 310 311 313 314 318 323 327 328 330 330 329 328 326 325 329
301 301 301 301 300 300 299 300 301 301 302 306 308 308 305 306 306 307 308 309 309 308 309 309 308 308 307 309 309 308 308 308 310 311 311 311 318 323 331 330 330 332 331 329 328 327 327
300 300 300 302 305 305 305 305 304 303 305 306 307 306 305 306 306 307 309 309 309 309 309 309 309 307 307 308 308 308 308 308 308 311 310 311 315 320 329 331 332 334 333 330 328 328 327
300 304 307 307 306 306 306 306 305 305 306 305 306 307 304 306 306 307 307 308 309 309 310 309 309 309 307 307 307 308 308 308 308 309 310 311 313 318 326 330 334 331 332 333 330 329 328
307 308 307 306 307 307 307 306 306 306 307 306 306 308 304 304 305 306 308 308 308 308 309 309 308 308 308 308 308 308 309 310 311 310 310 311 312 317 325 330 331 332 328 328 333 336 334
307 308 308 308 309 309 308 308 308 307 307 307 307 307 307 303 306 307 307 307 309 309 309 308 309 308 308 309 309 311 312 312 315 312 311 312 314 318 322 330 335 326 325 323 328 334 328
308 308 309 310 309 309 309 308 308 307 307 307 308 308 308 304 306 306 308 308 308 308 309 308 308 308 308 309 310 313 314 314 315 316 314 314 315 317 319 324 328 321 321 327 334 332 324
309 309 310 309 308 308 307 307 307 307 307 308 309 309 308 306 307 308 307 308 308 308 310 308 308 309 309 311 312 312 315 313 313 314 314 317 318 317 318 322 327 319 320 321 325 323 322
310 309 309 308 306 307 309 310 311 309 308 309 309 310 309 308 308 307 307 308 308 308 308 308 308 308 307 309 309 309 310 313 311 315 313 315 314 314 316 316 317 317 318 317 318 318 318
Wind_Speed
21 21 22 22 22 23 23 24 25 25 26 27 27 28 28 28 28 28 28 27 26 24 23 21 17 13 10 10 27 9 5 4 16 29 30 27 28 25 18 18 23 17 14 22 14 4 29
22 22 22 22 23 24 25 26 26 27 28 28 29 29 29 29 29 29 28 26 26 25 21 19 17 13 12 10 17 12 18 9 15 33 30 28 20 26 17 23 17 20 20 20 17 17 24
22 22 23 24 25 25 26 26 27 28 29 30 31 31 30 29 29 29 27 25 26 26 21 19 18 15 16 34 8 6 18 15 13 29 32 30 27 25 29 12 32 27 16 17 16 24 9
22 22 22 23 23 24 26 27 28 30 31 31 31 31 31 30 30 27 25 27 25 29 22 17 15 12 15 16 12 22 26 21 13 17 29 25 26 29 29 22 23 17 17 14 14 15 18
22 22 22 24 25 26 27 28 29 30 31 31 31 31 31 30 28 24 23 28 31 31 11 10 1 7 16 7 20 26 27 29 17 20 17 22 26 30 25 14 13 11 13 12 9 25 8
22 23 24 25 25 25 26 27 28 29 31 32 33 32 32 30 28 21 24 26 33 11 15 12 2 8 14 7 9 21 28 23 26 20 25 24 19 15 15 12 16 12 7 10 15 17 16
22 23 24 24 25 26 26 26 28 31 33 35 36 35 34 30 28 21 27 32 32 8 10 23 29 28 57 13 15 22 26 24 25 27 17 26 11 21 23 18 12 13 17 15 13 15 10
22 24 24 25 26 26 26 28 31 34 36 37 36 35 33 29 23 17 22 27 24 24 29 33 42 42 46 38 20 16 27 27 23 21 16 12 24 19 15 15 19 19 21 19 14 16 11
23 24 25 25 26 27 29 31 33 36 38 40 37 35 33 30 18 14 16 26 26 28 13 31 21 24 33 23 27 43 17 34 16 22 24 24 12 20 20 21 23 22 22 18 15 15 17
24 23 24 24 27 29 31 33 34 35 37 38 38 35 34 33 12 19 19 30 31 24 5 9 2 12 17 20 10 32 33 29 21 23 23 25 20 25 25 25 22 21 19 21 21 13 6
23 23 25 27 28 30 33 33 34 35 36 37 37 36 30 17 23 21 30 35 27 23 5 10 17 15 43 5 18 19 35 30 25 22 20 24 23 28 26 26 23 16 14 22 23 15 7
23 24 26 27 28 30 31 32 33 35 37 38 38 37 23 9 11 19 24 28 27 2 5 9 21 22 26 28 26 28 21 31 27 24 22 25 20 19 27 23 19 15 17 15 17 13 14
23 24 25 27 28 29 30 32 34 37 39 39 39 29 10 8 12 21 27 27 4 4 10 11 21 22 21 20 26 25 22 18 18 20 25 19 30 24 18 21 21 19 11 9 12 13 13
22 24 25 26 28 30 31 34 35 38 40 41 40 24 13 9 11 17 22 10 5 9 12 17 18 18 16 22 19 27 29 18 22 23 5 20 20 31 22 22 16 22 20 10 15 9 10
21 23 24 25 27 30 32 35 37 38 40 43 39 24 12 12 8 17 16 4 6 10 14 16 19 16 18 22 17 22 21 15 11 19 23 14 28 16 28 20 20 19 20 12 3 6 3
21 22 24 25 26 29 32 34 37 38 41 42 40 26 6 6 14 15 5 11 16 13 14 12 14 9 18 15 15 15 12 19 27 26 32 26 17 20 21 25 21 18 12 13 9 9 10
22 23 24 25 27 28 31 32 36 39 41 41 30 16 24 19 17 19 7 7 14 21 19 12 17 13 12 12 11 14 8 25 16 29 30 20 13 30 16 25 28 12 12 15 6 6 6
23 23 25 26 27 28 30 31 33 36 40 38 19 5 18 33 9 10 9 17 20 17 15 11 12 15 12 18 12 12 21 14 33 30 28 18 8 17 27 15 24 16 15 15 10 11 5
24 24 26 26 27 28 29 30 30 32 33 36 16 11 20 21 5 7 16 17 21 16 9 6 5 6 12 15 6 7 13 14 16 18 12 15 6 5 18 16 20 28 22 18 8 6 9
25 26 26 27 27 27 27 27 28 29 27 26 9 4 11 14 22 15 13 13 17 27 20 3 5 10 10 8 5 9 10 10 24 26 37 28 13 17 11 15 7 12 24 21 16 10 10
26 26 26 26 27 27 27 26 27 28 24 14 6 5 8 5 12 16 15 13 14 10 15 18 5 7 7 7 8 7 15 16 18 23 18 10 10 16 14 12 9 15 25 23 20 16 15
26 26 26 26 27 27 27 26 25 24 22 9 9 5 5 14 15 16 11 10 12 17 15 14 15 9 7 7 9 14 6 9 7 13 14 16 8 15 5 9 11 17 18 26 20 19 16
26 27 28 28 28 29 27 25 23 21 16 5 9 9 5 5 7 9 7 10 13 21 12 26 23 9 9 11 13 18 24 16 16 6 13 14 9 9 4 4 5 5 17 17 20 18 19
27 28 29 29 29 28 27 25 22 18 12 12 13 15 2 4 4 8 19 21 17 17 17 28 19 18 21 23 20 24 24 20 19 10 10 22 18 4 5 5 2 7 8 9 16 13 14
28 29 30 30 30 28 26 24 22 18 12 13 13 15 6 3 8 12 13 12 21 21 15 24 18 21 33 17 9 8 9 10 13 15 14 17 11 5 3 0 3 4 13 13 2 11 24
29 31 31 30 29 27 25 22 21 18 12 13 14 14 13 3 6 9 13 14 10 8 9 18 25 23 22 5 4 3 3 6 3 6 18 15 8 3 4 4 3 18 26 37 15 11 21
31 31 30 28 26 25 22 21 20 18 12 11 15 14 11 6 13 5 3 6 8 9 6 17 21 12 19 2 3 2 3 4 4 9 9 7 4 3 5 3 6 19 28 21 8 5 19
30 30 28 26 24 22 21 21 20 19 12 9 14 13 11 6 19 11 10 13 13 10 4 16 10 6 5 7 4 3 4 4 3 7 11 5 2 1 2 4 4 21 19 18 4 18 22
30 28 25 23 22 21 23 25 24 15 9 7 10 7 3 13 14 23 18 12 11 18 21 6 8 15 8 4 4 3 5 2 10 4 11 5 2 3 7 5 5 11 21 26 28 21 25
Wind_Direction
27 26 25 23 20 17 14 11 9 6 3 1 358 355 352 349 347 343 339 336 333 330 323 316 304 293 266 234 239 194 244 265 201 198 203 200 220 221 219 224 234 239 177 207 227 153 196
29 27 24 21 17 15 13 10 7 3 1 359 356 354 352 350 350 347 343 339 331 326 322 317 299 284 237 245 276 237 246 251 214 194 202 203 218 219 228 235 236 245 192 191 171 307 190
25 22 20 18 15 12 10 8 5 2 0 357 356 353 351 348 348 348 350 342 332 324 318 312 296 279 242 243 218 186 225 239 232 209 201 206 209 229 228 252 242 255 259 188 181 176 190
21 19 18 17 13 11 10 7 3 1 359 356 355 353 351 347 347 350 357 353 344 335 314 305 285 257 254 283 228 228 193 223 228 217 215 210 218 242 256 249 261 255 256 237 192 226 198
17 16 16 15 13 11 8 5 2 360 357 355 354 353 350 348 349 352 -0 358 344 333 331 319 204 229 265 288 225 195 193 208 205 205 221 215 225 237 250 240 255 255 245 230 198 211 189
16 14 14 13 10 9 6 3 0 359 357 355 354 353 349 349 348 352 348 356 349 4 21 3 272 289 258 254 235 223 189 197 203 201 201 209 224 229 236 221 222 232 232 235 219 236 214
16 14 12 11 9 7 4 3 2 1 359 356 353 350 347 347 345 358 347 357 2 339 323 286 269 261 286 257 284 216 205 211 210 197 209 202 212 222 218 224 235 235 243 230 243 227 215
14 12 11 10 8 4 3 6 6 3 360 355 350 346 343 342 343 352 346 353 351 315 302 280 261 258 259 261 281 253 200 197 219 204 205 198 225 222 216 218 233 235 244 251 231 239 224
13 11 11 10 6 5 6 6 4 1 358 355 349 343 340 336 342 357 347 344 338 330 298 304 266 249 252 251 236 254 234 204 212 209 205 209 219 218 214 219 221 231 234 245 244 243 243
11 9 10 9 7 6 6 3 359 354 350 348 349 341 335 333 343 345 342 342 333 329 308 286 349 25 352 229 264 246 236 219 224 222 211 227 228 200 223 220 219 223 233 245 253 260 187
9 8 9 8 6 5 4 360 355 351 346 342 344 341 324 337 318 330 342 331 327 318 303 16 5 342 355 138 304 210 230 242 213 219 208 217 197 226 212 221 217 227 227 238 250 258 256
6 6 6 5 4 3 1 358 353 349 348 343 340 339 319 348 325 344 331 327 321 232 246 325 13 355 349 339 328 316 267 237 227 231 234 230 211 220 226 218 224 221 222 247 246 248 253
4 4 3 3 1 359 357 355 352 350 349 344 340 341 311 323 342 352 344 327 302 237 318 360 4 348 331 329 341 353 339 240 215 217 234 237 226 221 227 220 203 218 205 229 236 229 233
0 0 1 359 356 353 352 351 352 349 348 345 341 337 310 297 344 344 326 309 253 304 349 355 351 327 354 354 344 343 339 326 225 228 206 229 234 216 215 226 195 208 216 209 216 210 232
353 355 355 352 350 348 347 348 350 349 346 347 344 343 344 332 310 323 314 287 307 7 4 347 339 339 343 342 343 347 335 291 322 234 232 219 241 204 227 212 218 204 217 216 260 211 247
343 346 347 346 346 345 345 346 347 349 346 348 345 346 354 348 323 308 280 264 314 4 348 330 323 343 334 355 351 337 328 292 340 349 350 246 269 224 220 229 230 214 175 215 213 201 221
335 338 338 339 339 340 342 344 346 347 345 352 357 327 24 358 332 301 253 293 310 336 347 346 329 317 318 342 345 325 276 308 346 338 331 313 243 250 240 209 219 200 195 202 186 193 183
332 333 333 334 333 334 337 341 345 343 347 354 351 308 328 329 330 338 355 340 343 333 343 9 348 341 346 333 297 302 287 278 320 328 317 290 293 236 240 253 211 225 212 197 206 228 223
329 331 331 332 332 332 335 338 344 342 354 347 318 294 337 14 27 347 338 335 325 349 355 30 317 310 323 314 337 333 328 310 317 313 323 327 321 270 248 253 265 214 202 213 182 149 218
328 329 329 330 330 331 334 336 339 340 353 348 316 309 349 340 356 353 335 322 337 337 339 34 296 295 323 327 360 288 285 294 314 296 302 308 255 243 256 231 224 220 204 201 204 202 213
327 329 330 330 329 329 333 334 334 337 352 351 337 345 6 318 332 317 308 322 344 326 317 313 272 319 338 300 292 297 324 330 316 302 309 298 265 256 265 270 278 269 201 195 206 210 198
328 329 329 329 326 326 329 328 329 336 343 348 324 351 337 299 311 309 314 322 321 320 344 312 318 324 308 267 284 310 294 336 306 316 321 306 283 324 276 288 277 285 244 194 200 212 224
328 328 328 328 325 324 328 324 326 331 338 323 314 288 300 272 302 309 308 327 310 306 307 317 302 295 261 282 293 272 287 246 247 235 303 287 320 330 308 316 292 301 251 197 203 197 211
326 328 328 328 325 324 324 321 324 323 317 299 298 283 190 273 268 299 302 310 315 311 303 301 305 297 296 306 305 283 278 262 249 220 243 279 295 296 287 43 135 256 344 326 209 196 203
328 327 326 325 323 323 321 320 321 318 311 294 295 273 208 259 254 287 302 328 308 311 307 303 333 310 317 291 278 297 268 242 232 196 220 256 272 297 299 205 307 270 4 337 70 46 10
327 327 327 325 324 322 323 322 321 316 311 296 294 284 249 254 234 273 312 293 303 314 314 322 351 352 9 10 291 278 333 314 338 183 198 247 258 245 348 287 184 356 343 330 306 49 12
328 329 326 324 326 326 327 324 320 316 307 291 288 287 251 234 285 289 262 313 297 312 296 306 346 342 7 336 289 353 9 290 309 339 172 198 298 308 297 312 360 341 342 6 60 39 24
330 329 326 326 328 331 331 327 321 316 310 294 289 296 269 249 288 292 286 285 296 301 306 330 330 4 2 8 355 334 4 321 298 34 357 46 255 205 321 338 360 337 358 48 15 42 40
330 330 328 328 333 338 332 328 325 322 317 288 290 315 307 249 278 303 304 287 298 285 287 309 302 335 8 1 350 346 303 337 338 20 353 20 120 203 342 344 326 29 314 8 16 22 16